Regional Weather Roundup
Issued by NWS

Home | Current Version | Previous Version | Graphics & Text | Print | Product List | Glossary On
Versions: 1 2 3 4 5 6 7 8 9 10 11 12 13 14 15 16 17 18 19 20 21 22 23 24 25 26 27 28 29 30 31 32 33 34 35 36 37 38 39 40 41 42 43 44 45 46 47 48 49 50
000
ASUS44 KMEG 032110
RWRTN
TENNESSEE HOURLY STATE WEATHER ROUNDUP
NATIONAL WEATHER SERVICE MEMPHIS TN
300 PM CST TUE MAR 03 2015

TNZ002-004-019-021-049-052-054-088>092-032200-
WEST TENNESSEE

CITY           SKY/WX    TMP DP  RH WIND       PRES   REMARKS
MEMPHIS INTL   LGT RAIN  57  55  94 S13       29.94F VSB 1/2
NWS MEMPHIS      N/A     57 N/A N/A MISG        N/A
JACKSON        LGT RAIN  60  57  89 S8        29.94F FOG
DYERSBURG      CLOUDY    57  45  62 SW8G16    29.93F
UNION CITY     CLOUDY    57  57 100 S14       29.88F
PARIS          CLOUDY    61  55  82 SW16      29.92R
LEXINGTON      CLOUDY    57  57 100 S12       29.95F
SAVANNAH       CLOUDY    61  61 100 S3        29.98F
$$

TNZ008-025-027-028-033-062-065-066-032200-
NORTH MIDDLE TENNESSEE

CITY           SKY/WX    TMP DP  RH WIND       PRES   REMARKS
NASHVILLE      CLOUDY    63  57  81 SW12      29.97F
CLARKSVILLE    CLOUDY    64  59  83 S12G22    29.90F
SMYRNA         CLOUDY    63  58  83 SW9       29.98F
COOKEVILLE     CLOUDY    63  57  82 SW8       29.99F
CROSSVILLE     FOG       53  52  96 S9G16     30.02F VSB 3/4
$$

TNZ061-075-076-078-094-096-097-032200-
SOUTH MIDDLE TENNESSEE

CITY           SKY/WX    TMP DP  RH WIND       PRES   REMARKS
FAYETTEVILLE   CLOUDY    54  54 100 S8          N/A
TULLAHOMA      CLOUDY    55  55 100 S8        30.03F
WINCHESTER     CLOUDY    57  55  94 S8        30.04S
MCMINNVILLE    CLOUDY    61  61 100 SW12      30.01F
COLUMBIA       CLOUDY   N/A N/A N/A S6        29.96F
SHELBYVILLE    CLOUDY    61  59  94 S9        30.01F
$$

TNZ017-018-042-046-047-032200-
NORTHEAST TENNESSEE

CITY           SKY/WX    TMP DP  RH WIND       PRES   REMARKS
TRI CITIES     CLOUDY    51  42  71 CALM      30.05F
ELIZABETHTON   CLOUDY    57  45  62 W3        30.03S
$$

TNZ012-013-036-069-073-074-032200-
CENTRAL EAST TENNESSEE

CITY           SKY/WX    TMP DP  RH WIND       PRES   REMARKS
KNOXVILLE      CLOUDY    50  45  83 CALM      30.05F
OAK RIDGE      CLOUDY    48  47  96 S3        30.06F FOG
GATLINBURG     CLOUDY    54  43  66 NW5       30.04F
MORRISTOWN     MOCLDY    48  43  81 CALM      30.05F
$$

TNZ083-085-099-032200-
SOUTHEAST TENNESSEE

CITY           SKY/WX    TMP DP  RH WIND       PRES   REMARKS
CHATTANOOGA    LGT RAIN  54  53  97 S6        30.07F FOG
$$

SKY/WX REPORTED AS FAIR MEANS FEW OR NO CLOUDS BELOW
12 THOUSAND FEET.




USA.gov is the U.S. government's official web portal to all federal, state and local government web resources and services.